Home > Weather > Germany > Paderborn > Past weeks

Flag for Germany Weather past 2 weeks in Paderborn, North Rhine-Westphalia, Germany

43 °F

Light rain. Broken clouds.

Feels Like: 39 °F
Forecast: 44 / 50 °F
Wind: 6 mph from Southwest

Location: Paderborn / Lippstadt

Current Time: Dec 1, 2015 at 3:50:26 PM

Latest Report: Dec 1, 2015 at 3:20 PM

Visibility: 6 mi

Pressure: 30.21 "Hg

Humidity: 93%

Dew point: 41 °F

Location of PaderbornLocation

Historic Weather in Paderborn — Graph


Paderborn temperature yesterday

Maximum temperature yesterday: 48 °F (at 4:20 PM)
Minimum temperature yesterday: 41 °F (at 12:50 PM)
Average temperature yesterday: 45 °F

Past Weeks' High & Low Weather Summary

High57 °F (Nov 17, 1:20 PM)100% (Nov 19, 8:50 PM)30.24 "Hg (Nov 19, 8:50 PM)
Low30 °F (Nov 22, 9:50 PM)56% (Nov 24, 10:50 AM)29.36 "Hg (Nov 21, 5:20 AM)
Average41 °F83%29.83 "Hg
* Reported Nov 16 2:20 PM — Dec 1 2:50 PM, Paderborn, Weather by CustomWeather, © 2015

Note: Actual official high and low records may vary slightly from our data, if they occured in-between our weather recording intervals... More about our weather records


Paderborn weather history for previous 24 hours

Time TempWeatherWind HumidityBarometerVisibility
2:50 PM
Tue, Dec 1
43 °FLight rain. Broken clouds.6 mph93%30.21 "Hg4 mi
2:20 PM43 °FLight rain. Partly sunny.6 mph87%30.21 "HgN/A
1:50 PM45 °FPartly sunny.8 mph76%30.21 "HgN/A
1:20 PM45 °FPartly sunny.7 mph76%30.21 "HgN/A
12:50 PM45 °FPartly sunny.7 mph71%30.21 "HgN/A
12:20 PM45 °FPassing clouds.8 mph76%30.21 "HgN/A
11:50 AM45 °FPassing clouds.9 mph76%30.21 "HgN/A
11:20 AM45 °FPassing clouds.8 mph71%30.21 "HgN/A
10:50 AM43 °FPassing clouds.7 mph81%30.21 "HgN/A
10:20 AM43 °FSunny.7 mph81%30.18 "Hg10 mi
9:50 AM41 °FSunny.6 mph87%30.18 "Hg10 mi
8:50 AM41 °FPassing clouds.6 mph87%30.15 "HgN/A
8:20 AM41 °FScattered clouds.6 mph87%30.15 "HgN/A
7:50 AM43 °FPassing clouds.6 mph81%30.12 "HgN/A
7:20 AM43 °FPassing clouds.6 mph81%30.12 "HgN/A
6:50 AM43 °FPassing clouds.7 mph81%30.12 "HgN/A
6:20 AM43 °FPassing clouds.9 mph81%30.09 "HgN/A
5:50 AM43 °FPartly cloudy.8 mph87%30.09 "HgN/A
5:20 AM43 °FPartly cloudy.9 mph87%30.07 "HgN/A
4:50 AM43 °FPartly cloudy.9 mph87%30.07 "HgN/A
4:20 AM43 °FPartly cloudy.8 mph87%30.04 "HgN/A
3:50 AM43 °FPartly cloudy.8 mph93%30.04 "HgN/A
3:20 AM45 °FPartly cloudy.10 mph81%30.01 "HgN/A
2:50 AM46 °FPartly cloudy.10 mph87%29.98 "HgN/A
2:20 AM48 °FPassing clouds.14 mph87%29.95 "HgN/A
1:50 AM48 °FRain. Passing clouds.16 mph100%29.92 "Hg4 mi
12:50 AM48 °FRain. Passing clouds.20 mph100%29.86 "Hg4 mi
11:50 PM
Mon, Nov 30
48 °FRain. Passing clouds.18 mph94%29.83 "Hg4 mi
11:20 PM48 °FRain. Passing clouds.21 mph94%29.83 "Hg4 mi
10:50 PM48 °FRain. Passing clouds.23 mph94%29.80 "Hg6 mi
10:20 PM48 °FRain. Passing clouds.23 mph94%29.80 "Hg6 mi
9:50 PM48 °FRain. Passing clouds.22 mph94%29.80 "Hg6 mi
9:20 PM48 °FRain. Partly cloudy.24 mph94%29.80 "Hg6 mi
8:50 PM48 °FRain. Partly cloudy.22 mph87%29.80 "Hg6 mi
8:20 PM48 °FRain. Partly cloudy.26 mph87%29.80 "Hg6 mi
7:50 PM48 °FRain. Passing clouds.20 mph87%29.80 "Hg5 mi
7:20 PM48 °FRain. Passing clouds.22 mph87%29.80 "Hg4 mi
6:50 PM48 °FRain. Passing clouds.25 mph87%29.80 "Hg4 mi
6:20 PM46 °FRain. Partly cloudy.17 mph93%29.83 "Hg5 mi
5:50 PM46 °FRain. Partly cloudy.17 mph93%29.83 "Hg5 mi
5:20 PM48 °FRain. Partly cloudy.17 mph87%29.83 "Hg5 mi
4:50 PM48 °FLight rain. Partly cloudy.21 mph87%29.86 "Hg5 mi
4:20 PM48 °FLight rain. Partly cloudy.20 mph87%29.86 "Hg5 mi
3:50 PM46 °FLight rain. Broken clouds.21 mph87%29.86 "Hg5 mi
3:20 PM45 °FLight rain. Broken clouds.18 mph93%29.89 "Hg5 mi
Weather by CustomWeather, © 2015

See weather overviewHow to use our weather pages